OBJECT F, 63330

Orbit data source: Space-Track

You're viewing an Uncataloged Satellite

Recently launched and/or uncataloged satellites may have evolving metadata. Metadata may include but not limited to: Owner, Maufacturer, Bus, Motor, and Mission.

OBJECT F, 63330 is a satellite owned by MO RF (CIS) in LEO that was launched on Wed, 05 Feb 2025 UTC launched from the Plesetsk Missile And Space Complex (PKMTR). Unknown objects in Earth's orbit typically refer to objects detected orbiting the Earth but have not yet been identified or cataloged. These objects could be anything from previously untracked satellites, spent rocket stages, debris from satellite collisions, or even natural meteoroids temporarily captured by Earth's gravity.

Loading next visibility...
Identifier
63330, 2025-026F
Orbit
LEO
Last TLE update
18 hours ago
Origin
Manufacturer
VNIIEM
Mission
Spacecraft
Bus & Motor
EMKA, Unknown motor
Mass
Unknown
Launch date (UTC)
2025-02-05 (5 months ago)
Launch vehicle
Unknown
Launch site
Plesetsk Missile And Space Complex (PKMTR)
Object type
Unknown
Shape & HBR
Unknown
Radar Cross Section
Medium (>0.1 m² and <1 m²)

Expand to show TLE details & history

TLE from 18 hours ago
0 OBJECT F
1 63330U 25026F   25174.88653459  .00002270  00000-0  20865-3 0  9992
2 63330  81.9954  79.6012 0013060 162.9399 197.2263 14.94352346 14485
Epoch: 2025-06-23T21:16Z
TLE epoch observation values (Epoch: 2025-06-23T21:16:36.588Z)
Latitude
0.00004°
Longitude
-151.84162°
Altitude
596.11 km
Speed
7.557 km/s
True Right ascension
05h 18m 24s
True Declination
0° 00' 00"
Sunlit
Object was in daylight at epoch
Visualization orbit readout
Latitude
0.93007°
Longitude
27.24369°
Altitude
578.671 km
Speed
7.576 km/s
Apparent Right ascension
16h 18m 07s
Apparent Declination
-19° 14' 44"
Sunlit
Object is in full shadow
Visualization observer readout
Local Sidereal Time
02:56:50
Azimuth
313.882° NW
Elevation
-62.944°
Doppler factor
1
Orbital elements
Apogee altitude
590.499 km
Perigee altitude
572.321 km
Semi-major axis
6,959.547 km
Eccentricity
0.00131
Inclination
81.9954°
RAAN
79.6012°
Arg. of periapsis
162.9399°
True anomaly
Unknown
Mean anomaly
197.2263°
Eccentric anomaly
Unknown
Mean motion
3.73828 °/min
Orbital period
96.3 mins
BSTAR
0.00020865
Loading maneuver chart data...
Loading SW <> Apogee altitude chart data...
Loading historical data...
Loading historical data...
Loading historical data...
Loading historical data...
Loading historical data...
Loading historical data...
Loading historical data...

OBJECT F Visibility forecast

Observer location: undefined°, undefined°

Span
Click to sort rows by Start time (UTC) header in descending order
Start Az.
Max El. time (UTC)
Max El. Az.
Max El.
End time (UTC)
End Az.
7 mins2025-06-24 18:17:07.388Z178.825° S2025-06-24 18:21:07.388Z64.835° ENE42.838°2025-06-24 18:24:07.388Z14.363° NNE
6 mins2025-06-25 06:00:07.388Z324.4° NNW2025-06-25 06:02:07.388Z282.576° WNW30.599°2025-06-25 06:06:07.388Z201.176° SSW
|